Location: Shell Point
(30.0571°N, 84.2896°W)
Time: 17:30:31
(UTC-04:00)

Daily predictions for brighter satellites

Satellite Brightness Start Highest point End
(mag) Time Altitude Azimuth Time Altitude Azimuth Time Altitude Azimuth
H-2A R/B 3.8 20:01:22 10° W 20:06:19 78° S 20:51:23 10° ESE
H-2A R/B 3.8 20:01:23 10° W 20:06:19 78° S 20:51:24 10° ESE
H-2A R/B 3.8 20:01:22 10° W 20:06:19 78° S 20:51:24 10° ESE
Spot 2 Rocket 4.3 20:30:11 10° SE 20:34:38 32° ENE 20:39:06 10° N
FengYun 1-2 T 4.4 20:32:44 10° SSE 20:38:15 59° ENE 20:43:48 10° N
ALOS 2.3 20:40:09 10° SSE 20:44:49 88° ENE 20:49:30 10° N
DELTA 2 R/B (1) 3.7 20:40:19 10° WNW 20:45:57 76° NNE 20:51:21 11° ESE
Milstar 3 3.1 20:39:37 10° W 20:49:24 79° S 20:55:56 11° E
SL-8 R/B 4.1 20:46:27 10° NW 20:51:13 63° SW 20:55:57 10° SE
BREEZE-M DEB (TANK) 3.4 20:51:35 10° WNW 20:54:14 53° SW 21:00:21 10° SE
Envisat 4.4 20:51:21 11° ESE 20:54:47 21° ENE 20:58:30 10° NNE
Meteor 1-29 4.2 20:55:51 10° NE 20:58:34 21° E 21:00:42 13° SE
ATLAS CENTAUR R/B 2.3 20:56:27 10° NW 20:59:29 80° SW 21:07:35 10° SSE
Cosmos 2227 4.4 20:53:57 10° N 20:59:35 57° ENE 21:05:08 10° SSE
Resurs 01 Rocket 1.6 20:55:52 10° SSE 21:00:15 65° ENE 21:04:40 10° N
Intercosmos 25 Rocket 3.7 20:58:34 10° SSE 21:01:24 31° E 21:04:31 10° NNE
Cosmos 1455 3.4 21:00:00 10° SSW 21:03:39 46° W 21:07:18 10° N
Cosmos 1939 Rocket 4.5 21:05:55 16° E 21:07:06 18° ENE 21:09:50 10° NNE
CZ-3B DEB 1.9 21:03:59 10° NW 21:07:19 33° WSW 21:09:05 12° S
OAO 3 Rocket 4.1 21:04:02 10° WNW 21:08:43 46° N 21:13:18 11° ENE
GRACE-1 3.8 21:06:09 10° N 21:08:52 84° W 21:11:35 10° S
SEDSat Delta rocket 3.5 21:04:06 10° W 21:09:07 84° N 21:14:21 13° E
GRACE-2 3.8 21:06:31 10° N 21:09:15 84° W 21:11:57 10° S
Cosmos 2142 Rocket 4.4 21:06:59 10° S 21:13:04 81° E 21:19:14 10° N
H-II Stage 2 3.2 21:10:54 10° WSW 21:13:15 27° S 21:16:22 16° SE
Lacrosse 4 Rocket 2.3 21:14:09 10° N 21:18:07 34° ENE 21:19:56 24° ESE
Helios 1B rocket 2.4 21:14:39 10° NNE 21:18:43 61° E 21:22:45 10° S
Atlas Centaur 2 2.7 21:12:18 10° WSW 21:18:46 76° SSE 21:25:41 14° E
Gblst 52 Del rocket 4.5 21:15:06 10° NW 21:20:47 62° SW 21:24:57 17° SSE
OTV 4 2.5 21:20:16 10° W 21:22:19 18° SW 21:23:23 15° S
Sakura Rocket 3.1 21:19:46 10° WSW 21:23:20 45° SSE 21:25:00 29° ESE
ERBS 2.6 21:21:54 10° NNW 21:25:17 52° NE 21:26:20 36° ESE
Cosmos 2026 Rocket 3.9 21:27:34 10° N 21:33:46 72° E 21:38:53 15° SSE
Cosmos 2263 Rocket 2.9 21:29:57 10° N 21:35:00 35° ENE 21:36:40 29° E
Cosmos 2322 Rocket 3.3 21:32:00 10° SW 21:37:21 47° WNW 21:42:46 10° N
CZ-4B DEB 3.2 21:38:38 42° NE 21:38:38 42° NE 21:41:09 10° N
USA 229 DEB 3.7 21:33:09 10° S 21:39:45 56° ESE 21:46:27 10° NE
USA 229 3.7 21:33:16 10° S 21:39:52 56° ESE 21:46:32 10° NE
COSMOS 2428 4.1 21:43:30 20° ENE 21:43:30 20° ENE 21:45:59 10° NE
Cosmos 2360 Rocket 2.1 21:40:44 10° S 21:46:20 72° ESE 21:51:58 10° NNE
Cosmos 1733 Rocket 3.0 21:42:28 10° N 21:46:54 68° E 21:48:10 44° SSE
Cosmos 1862 Rocket 3.7 21:44:32 10° S 21:48:58 77° W 21:53:27 10° N
USA 186 3.1 21:48:37 25° SW 21:49:21 30° W 21:51:53 10° NNW
IUS-7 SRM-1 4.4 21:48:22 10° W 21:51:51 50° S 21:55:41 31° SE
SAR-Lupe-4 3.7 21:52:43 52° SSW 21:53:25 70° WSW 21:57:00 10° NNW
Cosmos 1825 2.6 21:50:08 10° NNW 21:53:52 59° W 21:55:15 35° SSW
Helios 1A 3.4 21:56:05 32° S 21:57:52 61° W 22:02:05 10° NNW
Cosmos 2322 3.6 21:53:24 10° SSW 21:59:06 79° ESE 22:04:49 10° NNE
STPSAT 2 (USA 217) 4.4 21:57:23 10° NNW 22:01:59 75° ENE 22:02:21 69° ESE
Cosmos 397 4.4 22:00:07 10° NNW 22:03:59 65° NE 22:03:59 65° NE
SL-16 R/B 4.4 22:02:05 10° WSW 22:06:45 26° WNW 22:11:27 10° N
Cosmos 1933 4.4 22:04:31 17° SSW 22:07:23 44° W 22:11:15 10° N
Cosmos 1703 Rocket 4.2 22:10:27 45° NE 22:10:27 45° NE 22:13:42 10° NNE
CCE 1 Rocket 4.4 22:01:28 10° W 22:09:52 58° SSW 22:10:50 51° SSE
ATLAS 5 CENTAUR R/B 3.0 22:04:56 10° NNW 22:10:45 41° ENE 22:11:35 39° ENE
Cosmos 1655 Rocket 4.3 22:04:54 10° NNW 22:11:14 68° W 22:15:14 24° S
ARGOS 4.3 22:15:14 28° NE 22:15:14 28° NE 22:18:55 10° N
Skynet4D Del rocket 4.4 22:10:10 10° W 22:18:24 70° S 22:20:18 53° SE
Cosmos 2266 Rocket 4.0 22:16:08 10° N 22:22:22 59° E 22:22:35 59° E
Cosmos 968 Rocket 3.8 22:23:30 10° N 22:27:53 55° NNE 22:27:53 55° NNE
H-2A R/B 3.9 22:30:59 18° NE 22:30:59 18° NE 22:32:47 10° NNE
Cosmos 1867 4.2 22:27:13 10° NNW 22:31:43 46° NNE 22:31:43 46° NNE
Envisat 4.4 22:31:34 25° SW 22:33:31 34° W 22:38:07 10° NNW
Cosmos 1844 Rocket 4.3 22:32:57 10° N 22:35:50 21° NE 22:35:50 21° NE
USA 234 3.1 22:41:13 71° E 22:41:44 75° NE 22:48:16 10° NW
Cosmos 489 Rocket 4.4 22:35:32 10° NNW 22:41:55 86° WSW 22:42:08 83° SSW
MetOp-A 4.4 22:46:31 62° NNW 22:46:31 62° NNW 22:50:57 10° NNW
Cosmos 2219 Rocket 4.1 22:54:47 19° NNE 22:54:47 19° NNE 22:56:17 10° NNE
OAO 3 Rocket 4.4 22:47:46 10° WNW 22:51:07 42° NW 22:51:07 42° NW
Terra 4.4 22:57:33 12° NNE 22:57:33 12° NNE 22:58:02 10° NNE
SEDSat Delta rocket 4.1 22:50:11 10° W 22:54:28 57° WNW 22:54:28 57° WNW
Lacrosse 4 Rocket 4.0 22:53:51 10° WNW 22:56:19 16° WSW 22:56:19 16° WSW
ERS-1 Rocket 4.2 23:02:05 38° WNW 23:02:05 38° WNW 23:06:05 10° NNW
SeaSat 1 4.1 23:10:54 29° N 23:10:54 29° N 23:13:22 10° NNW
Atlas Centaur 2 2.8 23:01:13 10° W 23:08:19 84° WNW 23:08:19 84° WNW
Cosmos 2263 Rocket 4.0 23:14:20 10° NW 23:18:24 23° W 23:18:24 23° W
COSMOS 2428 4.1 23:25:22 34° WNW 23:25:28 34° WNW 23:30:36 10° N
Milstar 3 4.1 23:26:05 10° W 23:29:31 27° WSW 23:29:31 27° WSW
